Stations météo

réclame
Mon MeteoGroup
La Rochelle/Ile de Re, France (7316): Température de l'air & dewpoint: 08.08.2018 19:00:00 - 14.08.2018 19:00:00 (CEST)La Rochelle/Ile de Re, France (7316): Vitesse du vent & gusts: 08.08.2018 19:00:00 - 14.08.2018 19:00:00 (CEST)La Rochelle/Ile de Re, France (7316): Direction du vent: 08.08.2018 19:00:00 - 14.08.2018 19:00:00 (CEST)La Rochelle/Ile de Re, France (7316): reduced air pressure: 08.08.2018 19:00:00 - 14.08.2018 19:00:00 (CEST)La Rochelle/Ile de Re, France (7316): visibility: 08.08.2018 19:00:00 - 14.08.2018 19:00:00 (CEST)La Rochelle/Ile de Re, France (7316): Ensoleillement: 08.08.2018 19:00:00 - 14.08.2018 19:00:00 (CEST)La Rochelle/Ile de Re, France (7316): Quantités de précipitations: 08.08.2018 19:00:00 - 14.08.2018 19:00:00 (CEST)
Date & Time tt [°C] td [°C] ff [km/h] ff [knt] fx [km/h] fx [knt] dd ppp [hPa] vv [km] sd [min] rr [mm]
14.08.2018 19:00:00 20,7 15,0 30 16 40 21 NW 1021,4 27 60 0,0
14.08.2018 18:00:00 21,0 14,2 31 17 42 23 NW 1021,7 28 60 0,0
14.08.2018 17:00:00 21,7 13,6 28 15 36 20 NW 1021,9 34 60 0,0
14.08.2018 16:00:00 22,2 14,8 26 14 33 18 NW 1021,9 44 60 0,0
14.08.2018 15:00:00 22,4 14,3 22 12 31 17 NW 1021,8 56 60 0,0
14.08.2018 14:00:00 21,9 13,8 16 9 26 14 NNW 1021,6 60 60 0,0
14.08.2018 13:00:00 21,9 13,8 14 8 21 11 WNW 1021,5 60 60 0,0
14.08.2018 12:00:00 21,0 14,6 10 6 25 14 NNW 1021,3 60 60 0,0
14.08.2018 11:00:00 20,3 14,4 14 7 22 12 N 1021,2 60 60 0,0
14.08.2018 10:00:00 19,7 15,6 13 7 20 11 N 1020,8 60 55 0,0
14.08.2018 09:00:00 18,3 15,5 13 7 18 10 N 1020,4 60 60 0,0
14.08.2018 08:00:00 17,5 16,2 5 3 18 10 NNE 1019,7 19 35 0,0
14.08.2018 07:00:00 17,3 16,0 13 7 20 11 NNE 1018,9 31 0 0,0
14.08.2018 06:00:00 17,6 15,9 13 7 21 11 NNE 1018,1 47 0 0,0
14.08.2018 05:00:00 18,4 16,9 14 8 27 15 NW 1017,9 37 0 0,0
14.08.2018 04:00:00 18,4 16,6 22 12 34 19 NW 1017,5 51 0 0,0
14.08.2018 03:00:00 18,8 16,8 23 12 33 18 NW 1017,1 59 0 0,0
14.08.2018 02:00:00 19,0 16,4 19 10 25 13 NW 1017,3 60 0 0,0
14.08.2018 01:00:00 19,3 16,1 18 10 27 14 NNW 1016,9 59 0 0,0
14.08.2018 00:00:00 19,4 16,8 20 11 29 15 NW 1016,4 60 0 0,0
13.08.2018 23:00:00 19,3 16,7 21 11 30 16 WNW 1016,1 60 0 0,0
13.08.2018 22:00:00 19,2 16,1 20 11 31 17 WNW 1015,5 60 0 0,0
13.08.2018 21:00:00 19,4 16,8 20 11 28 15 NW 1014,9 60 0 0,0
13.08.2018 20:00:00 19,3 16,9 13 7 29 16 WNW 1014,5 60 0 0,6
13.08.2018 19:00:00 20,5 16,3 17 9 29 15 WNW 1014,3 60 13 0,0
13.08.2018 18:00:00 21,4 16,1 19 10 29 16 WNW 1014,1 40 30 0,0
13.08.2018 17:00:00 19,6 16,2 20 11 41 22 W 1014,2 18 27 0,0
13.08.2018 16:00:00 22,5 16,1 19 10 35 19 W 1014,0 60 8 0,0
13.08.2018 15:00:00 22,2 16,9 17 9 44 24 NW 1014,0 60 33 0,0
13.08.2018 14:00:00 22,7 16,9 19 11 31 17 WSW 1013,8 19 40 0,0
13.08.2018 13:00:00 21,9 17,1 15 8 35 19 WNW 1013,8 49 25 0,0
13.08.2018 12:00:00 21,8 16,1 23 13 33 18 W 1013,7 60 16 0,0
13.08.2018 11:00:00 21,2 17,0 19 11 29 15 W 1013,4 60 30 0,0
13.08.2018 10:00:00 20,9 16,7 18 10 28 15 W 1012,9 55 26 0,0
13.08.2018 09:00:00 19,6 17,2 19 11 34 18 WSW 1012,6 20 0 0,0
13.08.2018 08:00:00 19,2 16,6 13 7 20 11 W 1012,3 60 0 0,0
13.08.2018 07:00:00 18,6 16,6 11 6 23 12 W 1012,0 60 0 0,0
13.08.2018 06:00:00 18,3 16,6 16 9 25 14 WSW 1012,2 20 0 0,2
13.08.2018 05:00:00 19,3 16,1 9 5 19 10 WSW 1012,4 59 0 0,0
13.08.2018 04:00:00 19,0 15,1 13 7 31 17 W 1012,2 60 0 0,0
13.08.2018 03:00:00 18,9 16,5 21 11 36 20 W 1012,6 19 0 0,0
13.08.2018 02:00:00 19,2 16,1 14 8 24 13 W 1012,5 49 0 0,0
13.08.2018 01:00:00 19,7 16,7 16 9 24 13 W 1012,4 52 0 0,0
13.08.2018 00:00:00 20,2 17,4 12 6 25 13 W 1012,2 60 0 0,0
12.08.2018 23:00:00 20,6 18,0 16 9 26 14 W 1012,5 60 0 0,0
12.08.2018 22:00:00 21,4 18,0 20 11 29 16 W 1012,4 54 0 0,0
12.08.2018 21:00:00 21,8 18,4 15 8 24 13 SW 1011,9 59 0 0,0
12.08.2018 20:00:00 21,9 18,3 11 6 22 12 WSW 1011,8 60 0 0,0
12.08.2018 19:00:00 22,1 17,5 15 8 28 15 WSW 1012,0 57 1 0,0
12.08.2018 18:00:00 22,8 17,5 16 9 30 16 WSW 1012,1 60 22 0,0
12.08.2018 17:00:00 23,6 17,1 16 8 23 12 W 1012,4 60 36 0,0
12.08.2018 16:00:00 24,5 16,7 13 7 22 12 WSW 1012,9 60 44 0,0
12.08.2018 15:00:00 24,5 15,1 14 8 25 13 W 1013,6 60 22 0,0
12.08.2018 14:00:00 24,1 16,4 17 9 26 14 W 1013,9 53 30 0,0
12.08.2018 13:00:00 24,8 16,2 18 10 27 15 SW 1014,0 53 60 0,0
12.08.2018 12:00:00 24,6 16,6 18 10 29 16 SW 1014,1 57 60 0,0
12.08.2018 11:00:00 24,1 16,4 14 8 24 13 SSW 1014,2 60 58 0,0
12.08.2018 10:00:00 22,0 14,6 15 8 26 14 S 1014,3 60 60 0,0
12.08.2018 09:00:00 20,3 12,8 13 7 21 12 S 1014,7 60 60 0,0
12.08.2018 08:00:00 18,4 11,5 13 7 18 10 SSE 1014,8 56 37 0,0
12.08.2018 07:00:00 17,9 10,5 13 7 19 10 SSE 1014,9 60 0 0,0
12.08.2018 06:00:00 18,0 10,6 12 7 20 11 SSE 1015,2 60 0 0,0
12.08.2018 05:00:00 17,9 11,0 13 7 19 11 SE 1015,7 60 0 0,0
12.08.2018 04:00:00 16,9 11,8 14 8 17 9 ESE 1016,4 60 0 0,0
12.08.2018 03:00:00 15,6 12,9 9 5 10 5 E 1017,5 60 0 0,0
12.08.2018 02:00:00 16,8 13,3 4 2 10 5 ENE 1018,1 60 0 0,0
12.08.2018 01:00:00 18,0 14,1 7 4 11 6 NNE 1018,8 60 0 0,0
12.08.2018 00:00:00 18,9 14,4 8 4 13 7 N 1019,2 60 0 0,0
11.08.2018 23:00:00 19,3 14,5 10 5 13 7 N 1019,6 60 0 0,0
11.08.2018 22:00:00 20,1 15,9 12 6 20 11 NNW 1019,9 60 0 0,0
11.08.2018 21:00:00 20,5 13,9 16 9 26 14 NW 1020,0 46 56 0,0
11.08.2018 20:00:00 21,1 15,0 19 11 30 16 NW 1020,4 38 60 0,0
11.08.2018 19:00:00 21,8 15,4 24 13 32 17 NW 1020,9 38 60 0,0
11.08.2018 18:00:00 22,7 15,0 21 11 26 14 NW 1021,4 50 60 0,0
11.08.2018 17:00:00 24,4 13,3 15 8 22 12 NW 1022,0 60 60 0,0
11.08.2018 16:00:00 24,0 12,0 15 8 20 11 NW 1022,8 60 60 0,0
11.08.2018 15:00:00 23,3 11,4 13 7 24 13 NW 1023,5 60 60 0,0
11.08.2018 14:00:00 23,0 12,0 13 7 20 11 WNW 1024,1 13 60 0,0
11.08.2018 13:00:00 23,1 9,8 5 3 19 10 E 1024,9 19 60 0,0
11.08.2018 12:00:00 22,2 11,0 10 5 30 16 ESE 1025,3 20 60 0,0
11.08.2018 11:00:00 21,0 12,7 12 7 23 13 E 1025,6 44 60 0,0
11.08.2018 10:00:00 19,6 12,8 11 6 17 9 ENE 1025,9 54 60 0,0
11.08.2018 09:00:00 17,3 13,0 10 6 14 8 ESE 1026,1 50 60 0,0
11.08.2018 08:00:00 14,5 12,7 9 5 11 6 ESE 1025,9 49 38 0,0
11.08.2018 07:00:00 12,8 11,0 8 4 12 6 ESE 1025,8 43 0 0,0
11.08.2018 06:00:00 13,0 11,2 8 4 11 6 E 1025,6 45 0 0,0
11.08.2018 05:00:00 14,7 11,3 8 4 17 9 E 1025,8 60 0 0,0
11.08.2018 04:00:00 15,7 12,3 10 5 13 7 NNE 1025,9 60 0 0,0
11.08.2018 03:00:00 16,2 12,4 10 5 12 6 N 1026,1 60 0 0,0
11.08.2018 02:00:00 16,9 12,8 6 4 11 6 NNE 1026,5 60 0 0,0
11.08.2018 01:00:00 17,0 12,9 8 4 13 7 N 1026,4 60 0 0,0
11.08.2018 00:00:00 17,7 12,8 10 5 16 9 NNW 1026,3 60 0 0,0
10.08.2018 23:00:00 18,1 12,8 12 7 16 9 NW 1026,2 60 0 0,0
10.08.2018 22:00:00 18,5 12,3 14 7 22 12 NW 1025,7 60 0 0,0
10.08.2018 21:00:00 19,6 11,9 18 10 24 13 NW 1025,5 60 56 0,0
10.08.2018 20:00:00 20,8 13,0 17 9 23 13 NW 1025,3 60 60 0,0
10.08.2018 19:00:00 21,2 13,1 17 9 24 13 NW 1025,4 60 52 0,0
10.08.2018 18:00:00 21,9 12,7 15 8 22 12 NW 1025,5 51 60 0,0
10.08.2018 17:00:00 21,9 12,4 12 6 22 12 WNW 1025,5 40 60 0,0
10.08.2018 16:00:00 21,8 12,4 13 7 27 14 WSW 1025,8 37 60 0,0
10.08.2018 15:00:00 21,7 13,3 19 10 29 16 S 1026,2 51 60 0,0
10.08.2018 14:00:00 21,5 13,4 17 9 32 17 S 1026,1 60 50 0,0
10.08.2018 13:00:00 21,1 13,3 22 12 32 17 SSW 1026,1 60 46 0,0
10.08.2018 12:00:00 19,6 13,1 16 9 26 14 S 1026,1 47 38 0,0
10.08.2018 11:00:00 19,5 13,4 16 9 30 16 SSW 1025,8 44 15 0,0
10.08.2018 10:00:00 18,6 12,1 14 8 26 14 SSW 1025,7 55 16 0,0
10.08.2018 09:00:00 18,0 13,3 15 8 24 13 S 1025,4 60 29 0,0
10.08.2018 08:00:00 16,7 13,2 15 8 22 12 SSE 1025,3 58 20 0,0
10.08.2018 07:00:00 15,1 12,2 7 4 11 6 S 1025,0 60 0 0,0
10.08.2018 06:00:00 15,2 11,8 4 2 9 5 SSE 1024,7 60 0 0,0
10.08.2018 05:00:00 14,7 12,0 6 4 8 5 SSE 1024,6 60 0 0,0
10.08.2018 04:00:00 14,1 11,6 5 3 8 4 S 1024,6 60 0 0,0
10.08.2018 03:00:00 15,0 11,4 3 1 4 2 E 1024,6 60 0 0,0
10.08.2018 02:00:00 16,0 12,0 4 2 14 7 E 1024,7 60 0 0,0
10.08.2018 01:00:00 17,0 11,5 9 5 19 10 NNW 1024,4 60 0 0,0
10.08.2018 00:00:00 17,6 11,4 16 9 29 16 NW 1023,9 60 0 0,0
09.08.2018 23:00:00 17,9 11,5 20 11 29 15 NW 1023,4 60 0 0,0
09.08.2018 22:00:00 18,4 11,9 21 11 29 16 NW 1022,9 60 0 0,0
09.08.2018 21:00:00 18,7 11,7 20 11 34 18 WNW 1022,2 60 60 0,0
09.08.2018 20:00:00 19,8 12,1 25 13 34 19 NW 1021,4 33 60 0,0
09.08.2018 19:00:00 20,3 13,7 25 14 36 19 WNW 1020,7 31 60 0,0
09.08.2018 18:00:00 20,8 13,2 27 15 37 20 NW 1020,3 31 60 0,0
09.08.2018 17:00:00 21,2 13,4 27 15 35 19 NW 1019,9 36 40 0,0
09.08.2018 16:00:00 21,0 13,2 23 12 34 18 NW 1019,5 32 57 0,0
09.08.2018 15:00:00 21,4 13,1 25 13 38 21 NW 1019,0 35 60 0,0
09.08.2018 14:00:00 20,5 13,0 29 16 42 23 WNW 1018,3 40 60 0,0
09.08.2018 13:00:00 20,2 12,7 31 17 40 22 WNW 1017,7 48 60 0,0
09.08.2018 12:00:00 19,4 13,6 29 16 37 20 NW 1017,0 60 52 0,0
09.08.2018 11:00:00 18,4 14,5 26 14 39 21 NW 1016,0 60 12 0,0
09.08.2018 10:00:00 16,4 14,1 24 13 38 20 NNW 1015,3 47 0 0,0
09.08.2018 09:00:00 16,2 14,2 24 13 37 20 NNW 1013,6 53 0 0,0
09.08.2018 08:00:00 16,2 14,6 24 13 32 17 NW 1012,2 54 0 0,0
09.08.2018 07:00:00 15,8 14,5 19 10 29 15 NNW 1011,2 54 0 0,0
09.08.2018 06:00:00 15,7 14,9 20 11 35 19 N 1010,5 18 0 5,2
09.08.2018 05:00:00 16,2 15,1 31 17 51 27 NW 1011,9 1,9 0 7,9
09.08.2018 04:00:00 17,5 13,6 18 10 35 19 N 1010,0 19 0 0,4
09.08.2018 03:00:00 18,9 13,1 18 10 32 17 NNE 1010,1 60 0 0,0
09.08.2018 02:00:00 18,6 13,0 19 11 32 18 N 1011,3 60 0 0,0
09.08.2018 01:00:00 19,2 13,1 24 13 34 19 N 1012,6 60 0 0,0
09.08.2018 00:00:00 19,1 13,5 21 11 28 15 N 1013,0 60 0 0,0
08.08.2018 23:00:00 19,5 14,1 18 10 27 14 NNW 1013,9 60 0 0,0
08.08.2018 22:00:00 20,1 13,3 20 11 27 15 NW 1013,8 60 0 0,0
08.08.2018 21:00:00 20,4 13,1 18 10 26 14 NW 1013,6 60 0 0,0
08.08.2018 20:00:00 20,7 13,2 16 9 26 14 NW 1013,7 60 31 0,0
08.08.2018 19:00:00 22,2 13,8 19 10 25 13 NNW 1013,8 60 60 0,0

tt = Température de l'air
td = dewpoint
ff = Vitesse du vent
fx = gusts
dd = Direction du vent
ppp = reduced air pressure
vv = visibility
sd = Ensoleillement
rr = Quantités de précipitations

stations d'obs. à proximité